User: anonymous   Login
Location: Clinton NY
(43.0598°N, 75.3602°W)
Time: 12:26:56
(UTC-04:00)
Language:

Cosmos-2242 - Orbit

View from above orbital plane
View from above orbital plane
View from above satellite
View from above satellite

Ground track
Ground track

The orbit data is extracted from the following two-line orbital elements,

1 22626U 93024A   15143.18620655  .00000887  00000-0  96107-4 0  9993
2 22626 082.5240 034.2109 0020855 107.8062 252.5433 14.86959075193779
Epoch (UTC): 23 May 2015 04:28:08
Eccentricity: 0.0020855
inclination: 82.5240°
perigee height: 593 km
apogee height: 622 km
right ascension of ascending node: 34.2109°
argument of perigee: 107.8062°
revolutions per day: 14.86959075
mean anomaly at epoch: 252.5433°
orbit number at epoch: 19377

The dashed part of the orbit path shows where the satellite is in the earth's shadow,  

DLR